Location: Hope
(40.9110°N, 74.9680°W)
Time: 15:49:59
(UTC-05:00)

FORTE - Visible Passes

Search period start: 05 December 2021 00:00
Search period end: 15 December 2021 00:00
Orbit: 787 x 819 km, 70.0° (Epoch: 05 December)

Date Brightness Start Highest point End Pass type
(mag) Time Alt. Az. Time Alt. Az. Time Alt. Az.
05 Dec 7.7 05:34:38 10° S 05:39:53 59° ESE 05:45:12 10° NNE visible
06 Dec 8.2 05:08:15 10° S 05:13:18 44° ESE 05:18:25 10° NE visible
07 Dec 8.7 04:41:59 10° S 04:46:45 33° ESE 04:51:34 10° NE visible
07 Dec 7.7 06:25:12 10° WSW 06:30:02 33° NW 06:34:55 10° N visible
08 Dec 9.1 04:15:53 10° SSE 04:20:13 25° ESE 04:24:36 10° NE visible
08 Dec 7.4 05:58:12 10° SW 06:03:17 42° WNW 06:08:26 10° NNE visible
09 Dec 9.5 03:50:01 10° SE 03:53:43 19° ESE 03:57:28 10° ENE visible
09 Dec 7.1 05:31:18 10° SW 05:36:34 55° WNW 05:41:54 10° NNE visible
10 Dec 9.7 03:26:03 13° ESE 03:27:15 14° E 03:30:02 10° ENE visible
10 Dec 6.9 05:07:16 31° SW 05:09:53 72° WNW 05:15:19 10° NNE visible
11 Dec 7.0 04:43:30 81° NE 04:43:30 81° NE 04:48:41 10° NNE visible
11 Dec 8.6 06:24:37 11° WNW 06:27:20 15° NW 06:30:27 10° N visible
12 Dec 8.3 04:18:55 34° NE 04:18:55 34° NE 04:21:59 10° NNE visible
12 Dec 8.4 06:00:00 19° NW 06:00:28 19° NW 06:04:17 10° N visible
13 Dec 9.3 03:53:55 17° NE 03:53:55 17° NE 03:55:15 10° NE visible
13 Dec 8.4 05:34:59 21° NNW 05:34:59 21° NNW 05:37:58 10° N visible
14 Dec 8.8 05:09:43 19° N 05:09:43 19° N 05:11:34 10° N visible
